星链-4199 (STARLINK-4199 )

导读 | 豆包AI

STARLINK-4199是美国SpaceX公司星链(Starlink)卫星互联网项目中的一员,于2022年6月17日发射入轨。作为低轨通信卫星,它属于星链星座组网的组成部分,旨在为全球偏远、缺乏基础设施的区域提供低延迟、高速宽带互联网服务,单星配备霍尔推进器与自主避撞系统,服役结束后会主动离轨坠入大气层烧毁。

基本信息
目录编号:
52857
目录名称:
STARLINK-4199
国际标识:
2022-062AD
轨道中心:
EARTH
卫星名称:
星链-4199
卫星全名:
星链-4199 (STARLINK-4199 )
卫星状态:
在轨 (已飞行1413 天)
发射日期:
2022-06-17 UTC
国别 :
美国 (US)
星等 :
--
轨道信息
数据来源 国际轨道数据 AOE轨道数据
星历时间 2026-04-30T19:32:26+0800
8小时前
查看轨道信息
2026-04-28T09:00:00+0800
2天前
查看轨道信息
半长轴 6917.881km 6917.893km
偏心率 0.0001237 0.0002387
轨道倾角 53.216° 53.215°
近地点辐角 73.725° 61.735°
升交点赤经 151.621° 162.572°
平近点角 286.388° 1.947°
近地点 538.888km 538.104km
远地点 540.6km 541.408km
周期 95.438分钟 95.438分钟
每日圈数 15.088401 15.088361
详细信息
固有亮度:
5
最大亮度:
2.5
卫星平台:
Starlink v1.5
覆盖范围:
全球
运营商:
太空探索技术公司
运营商所在国:
美国
制造商(研发单位):
太空探索技术公司
制造商所在国:
美国
使用方式:
暂无
卫星简介
星链(Starlink)计划是由太空探索技术公司(SpaceX)提出的一个巨型低轨卫星互联网星座项目,计划在2019年至2024年间在太空搭建由约1.2万颗卫星组成的“星链”网络,其中1584颗将部署在地球上空550千米处的近地轨道,并从2020年开始工作。该卫星仍在工作。
2D轨道图
3D轨道图
轨道高度分析图
轨道倾角分析图
轨道综合分析图
查看轨道综合分析图